Columbus, OH

9:51 AM EST on February 06, 2016 (GMT -0500)
Port Columbus International

Weather History for KCMH - September, 2013

Change the Weather History Date:

Monday, September 23, 2013

  Actual Average Record
Temperature  
Mean Temperature 56 °F 64 °F  
Max Temperature 65 °F 74 °F 93 °F (2010)
Min Temperature 47 °F 54 °F 33 °F (1995)
Degree Days  
Heating Degree Days 9 4  
Month to date heating degree days 38 36  
Since 1 July heating degree days 42 36  
Cooling Degree Days 0 2  
Month to date cooling degree days 126 108  
Year to date cooling degree days 1127 997  
Growing Degree Days 5 (Base 50)    
Moisture  
Dew Point 44 °F    
Average Humidity 65    
Maximum Humidity 86    
Minimum Humidity 44    
Precipitation  
Precipitation 0.00 in 0.10 in 1.93 in (2000)
Month to date precipitation 2.51 2.22  
Year to date precipitation 29.15 29.91  
Snow  
Snow 0.00 in 0.00 in - ()
Month to date snowfall 0.0 0.0  
Since 1 July snowfall 0.0 0.0  
Since 1 September snowfall 0.0 0.0  
Snow Depth 0.00 in    
Sea Level Pressure  
Sea Level Pressure 30.11 in    
Wind  
Wind Speed 5 mph (ENE)    
Max Wind Speed 14 mph    
Max Gust Speed 17 mph    
Visibility 10 miles    
Events      
T = Trace of Precipitation, MM = Missing Value Source: NWS Daily Summary

Daily Weather History Graph

Daily Weather History Graph

Search for Another Location

Airport or City:

Trip Planner

Search our weather history database for the weather conditions in past years. The results will help you decide how hot, cold, wet, or windy it might be!

Date:

Astronomy

Sep. 23, 2013 Rise Set
Actual Time 7:20 AM EDT 7:26 PM EDT
Civil Twilight 6:53 AM EDT 7:53 PM EDT
Nautical Twilight 6:21 AM EDT 8:25 PM EDT
Astronomical Twilight 5:49 AM EDT 8:57 PM EDT
Moon 9:58 PM EDT (9/23) 11:38 AM EDT (9/23)
Length of Visible Light 13h 00m
Length of Day
12h 06m
Waning Gibbous, 81% of the Moon is Illuminated
Sep 23
Waning Gibbous
Sep 26
Last Quarter
Oct 4
New
Oct 11
First Quarter
Oct 18
Full

Hourly Weather History & Observations

Time (EDT) Temp. Dew Point Humidity Pressure Visibility Wind Dir Wind Speed Gust Speed Precip Events Conditions
12:51 AM 50.0 °F 44.1 °F 80% 30.05 in 10.0 mi NE 3.5 mph - N/A   Clear
1:51 AM 50.0 °F 44.1 °F 80% 30.06 in 10.0 mi Calm Calm - N/A   Clear
2:51 AM 48.9 °F 43.0 °F 80% 30.06 in 10.0 mi NNE 3.5 mph - N/A   Clear
3:51 AM 46.9 °F 42.1 °F 83% 30.06 in 10.0 mi NNE 3.5 mph - N/A   Clear
4:51 AM 46.9 °F 42.1 °F 83% 30.07 in 10.0 mi Calm Calm - N/A   Clear
5:51 AM 48.0 °F 43.0 °F 83% 30.08 in 10.0 mi East 3.5 mph - N/A   Clear
6:51 AM 48.0 °F 43.0 °F 83% 30.09 in 10.0 mi East 4.6 mph - N/A   Clear
7:51 AM 48.9 °F 44.1 °F 83% 30.11 in 10.0 mi ENE 3.5 mph - N/A   Partly Cloudy
8:51 AM 53.1 °F 46.0 °F 77% 30.13 in 10.0 mi East 5.8 mph - N/A   Clear
9:51 AM 57.0 °F 44.1 °F 62% 30.14 in 10.0 mi East 6.9 mph - N/A   Clear
10:51 AM 61.0 °F 42.1 °F 50% 30.15 in 10.0 mi East 9.2 mph - N/A   Scattered Clouds
11:51 AM 62.1 °F 43.0 °F 50% 30.15 in 10.0 mi NE 9.2 mph - N/A   Scattered Clouds
12:51 PM 63.0 °F 42.1 °F 46% 30.14 in 10.0 mi ENE 8.1 mph - N/A   Mostly Cloudy
1:51 PM 62.1 °F 42.1 °F 48% 30.14 in 10.0 mi East 5.8 mph - N/A   Scattered Clouds
2:51 PM 64.0 °F 43.0 °F 46% 30.12 in 10.0 mi East 4.6 mph - N/A   Scattered Clouds
3:51 PM 64.0 °F 43.0 °F 46% 30.11 in 10.0 mi ENE 6.9 mph - N/A   Scattered Clouds
4:51 PM 64.0 °F 44.1 °F 48% 30.11 in 10.0 mi ENE 8.1 mph - N/A   Partly Cloudy
5:51 PM 63.0 °F 44.1 °F 50% 30.10 in 10.0 mi East 6.9 mph - N/A   Partly Cloudy
6:51 PM 61.0 °F 44.1 °F 54% 30.10 in 10.0 mi East 8.1 mph - N/A   Partly Cloudy
7:51 PM 57.0 °F 44.1 °F 62% 30.10 in 10.0 mi East 4.6 mph - N/A   Clear
8:51 PM 55.0 °F 45.0 °F 69% 30.11 in 10.0 mi ENE 4.6 mph - N/A   Clear
9:51 PM 52.0 °F 45.0 °F 77% 30.11 in 10.0 mi ENE 3.5 mph - N/A   Clear
10:51 PM 51.1 °F 45.0 °F 80% 30.12 in 10.0 mi East 3.5 mph - N/A   Clear
11:51 PM 50.0 °F 45.0 °F 83% 30.13 in 10.0 mi East 3.5 mph - N/A   Clear